• Join FlightAware (Why Join?)
  • Login
  • US Flag 
11:00PM EDT


 

Airport Tracker/Info


-or-


 

Live Flight TrackerFlight Track Log ✈ N431EH ✈ 25-Apr-2014 ✈ KSUN - KSLC

Flight Track Log - Related Links

Times and Time Zones

All times are in EDT time to prevent confusion due to time zone crossing. See the N431EH flight status page for this flight to view local times or setup timezone preferences in your user account.

Time Position Orientation Groundspeed Altitude Reporting Facility
EDT Latitude Longitude Course Direction KTS MPH feet Rate Location/Type
05:44PM 42.9375 -114.0430 158° South  Level FlightAware Approximate
05:45PM 42.8458 -113.9921 158° South  Level FlightAware Approximate
05:45PM 43.0260 -113.9914 144° Southeast 380 437 26,100  Level FlightAware ADS-B (KBTF)
05:46PM 42.9741 -113.9397 143° Southeast 381 438 27,000 660 Climbing FlightAware ADS-B (KBTF)
05:46PM 42.9077 -113.8738 143° Southeast 403 464 27,000  Level FlightAware ADS-B (KBTF)
05:47PM 42.8446 -113.8112 144° Southeast 416 479 27,000  Level FlightAware ADS-B (KBTF)
05:48PM 42.7890 -113.7563 144° Southeast 415 478 27,000  Level FlightAware ADS-B (KBTF)
05:48PM 42.7202 -113.6885 144° Southeast 414 476 27,000  Level FlightAware ADS-B (KBTF)
05:49PM 42.6594 -113.6287 144° Southeast 415 478 27,000  Level FlightAware ADS-B (KBTF)
05:50PM 42.5976 -113.5680 144° Southeast 418 481 27,000  Level FlightAware ADS-B (KBTF)
05:50PM 42.5332 -113.5051 144° Southeast 421 484 27,000  Level FlightAware ADS-B (KBTF)
05:51PM 42.4662 -113.4396 144° Southeast 422 486 27,000  Level FlightAware ADS-B (KBTF)
05:52PM 42.4101 -113.3850 144° Southeast 423 487 27,000  Level FlightAware ADS-B
05:52PM 42.3568 -113.3332 144° Southeast 424 488 27,000  Level FlightAware ADS-B
05:53PM 42.3059 -113.2838 144° Southeast 417 480 27,000  Level FlightAware ADS-B (KBTF)
05:53PM 42.2552 -113.2348 144° Southeast 418 481 27,000  Level FlightAware ADS-B (KBTF)
05:54PM 42.2086 -113.1898 144° Southeast 418 481 27,000 -480 Level FlightAware ADS-B (KBTF)
05:54PM 42.1583 -113.1413 144° Southeast 434 499 26,500 -1,140 Descending FlightAware ADS-B
05:55PM 42.1084 -113.0933 144° Southeast 427 491 25,800 -1,440 Descending FlightAware ADS-B
05:55PM 42.0724 -113.0586 145° Southeast 420 483 25,300 -1,500 Descending FlightAware ADS-B
05:56PM 42.0198 -113.0083 145° Southeast 403 464 24,500 -1,320 Descending FlightAware ADS-B
05:56PM 41.9651 -112.9561 145° Southeast 391 450 23,700 -1,260 Descending FlightAware ADS-B
05:57PM 41.9291 -112.9217 145° Southeast 385 443 23,200 -1,200 Descending FlightAware ADS-B
05:57PM 41.9106 -112.9040 144° Southeast 376 433 23,000 -1,080 Descending FlightAware ADS-B (KBTF)
05:58PM 41.8671 -112.8625 145° Southeast 381 438 22,500 -960 Descending FlightAware ADS-B (KBTF)
05:58PM 41.8542 -112.8503 144° Southeast 375 432 22,400 -1,200 Descending FlightAware ADS-B (KBTF)
05:58PM 41.8090 -112.8074 145° Southeast 390 449 21,700 -1,380 Descending FlightAware ADS-B
05:59PM 41.7504 -112.7517 145° Southeast 394 453 20,800 -1,320 Descending FlightAware ADS-B
05:59PM 41.7062 -112.7094 143° Southeast 392 451 20,200 -1,200 Descending FlightAware ADS-B
06:00PM 41.6913 -112.6931 138° Southeast 387 445 20,000 -1,320 Descending FlightAware ADS-B (KBTF)
06:00PM 41.6440 -112.6336 136° Southeast 388 447 19,100 -1,380 Descending FlightAware ADS-B
06:01PM 41.6154 -112.5969 136° Southeast 383 441 18,400 -1,260 Descending FlightAware ADS-B
06:01PM 41.5837 -112.5563 136° Southeast 381 438 18,100 -1,260 Descending FlightAware ADS-B
06:02PM 41.5378 -112.4983 139° Southeast 347 399 17,400 -960 Descending FlightAware ADS-B (KBTF)
06:02PM 41.4992 -112.4601 145° Southeast 294 338 17,100 -1,200 Descending FlightAware ADS-B
06:03PM 41.4543 -112.4236 151° Southeast 261 300 16,000 -1,620 Descending FlightAware ADS-B (KBTF)
06:03PM 41.4295 -112.4054 142° Southeast 271 312 15,400 -1,620 Descending FlightAware ADS-B
06:03PM 41.4207 -112.3933 123° Southeast 285 328 15,100 -1,440 Descending FlightAware ADS-B
06:03PM 41.4155 -112.3792 110° East 294 338 15,000 -1,500 Descending FlightAware ADS-B (KBTF)
06:04PM 41.4094 -112.3496 103° East 298 343 14,400 -1,080 Descending FlightAware ADS-B
06:04PM 41.4061 -112.3094 87° East 296 341 14,300 -540 Descending FlightAware ADS-B (KBTF)
06:05PM 41.4121 -112.2427 82° East 278 320 13,900 -720 Descending FlightAware ADS-B
06:06PM 41.4208 -112.1615 82° East 254 292 13,300 -420 Descending FlightAware ADS-B (KBTF)
06:06PM 41.4271 -112.1030 81° East 228 262 13,300  Level FlightAware ADS-B (KBTF)
06:07PM 41.4299 -112.0490 90° East 232 267 13,300  Level FlightAware ADS-B (KBTF)
06:08PM 41.4282 -111.9958 91° East 225 259 13,300  Level FlightAware ADS-B (KBTF)
06:08PM 41.4200 -111.9410 133° Southeast 195 224 13,300  Level FlightAware ADS-B (KBTF)
06:09PM 41.4069 -111.9350 189° South 185 213 13,300  Level FlightAware ADS-B (KBTF)
06:09PM 41.3888 -111.9505 228° Southwest 199 229 13,300  Level FlightAware ADS-B (KBTF)
06:09PM 41.3747 -111.9698 225° Southwest 207 238 13,300  Level FlightAware ADS-B (KBTF)
06:10PM 41.3493 -112.0051 229° Southwest 204 235 13,300  Level FlightAware ADS-B (KBTF)
06:11PM 41.3246 -112.0456 253° West 217 250 13,300  Level FlightAware ADS-B (KBTF)
06:11PM 41.3262 -112.0722 287° West 239 275 13,300  Level FlightAware ADS-B (KBTF)
06:12PM 41.3496 -112.1263 326° Northwest 257 296 13,300  Level FlightAware ADS-B (KBTF)
06:12PM 41.3612 -112.1317 347° North 262 302 13,300  Level FlightAware ADS-B (KBTF)
06:12PM 41.3991 -112.1366 North 273 314 13,300  Level FlightAware ADS-B (KBTF)
06:12PM 41.4094 -112.1327 25° Northeast 263 303 13,300  Level FlightAware ADS-B (KBTF)
06:13PM 41.4210 -112.1213 50° Northeast 253 291 13,300 -420 Level FlightAware ADS-B (KBTF)
06:13PM 41.4286 -112.0933 90° East 236 272 13,100 -780 Descending FlightAware ADS-B (KBTF)
06:13PM 41.4232 -112.0668 118° Southeast 208 239 12,800 -900 Descending FlightAware ADS-B (KBTF)
06:14PM 41.4095 -112.0504 152° Southeast 181 208 12,500 -900 Descending FlightAware ADS-B (KBTF)
06:14PM 41.3943 -112.0459 173° South 163 188 12,200 -1,020 Descending FlightAware ADS-B (KBTF)
06:15PM 41.3656 -112.0403 172° South 195 224 11,600 -720 Descending FlightAware ADS-B (KBTF)
06:15PM 41.3254 -112.0328 171° South 214 246 11,300 -240 Descending FlightAware ADS-B (KBTF)
06:16PM 41.2846 -112.0284 179° South 212 244 11,300  Level FlightAware ADS-B (KBTF)
06:17PM 41.2404 -112.0262 177° South 214 246 11,300  Level FlightAware ADS-B (KBTF)
06:17PM 41.1988 -112.0228 175° South 226 260 11,300  Level FlightAware ADS-B (KBTF)
06:18PM 41.1623 -112.0180 174° South 197 227 11,300 -120 Level FlightAware ADS-B (KBTF)
06:19PM 41.1306 -112.0145 176° South 164 189 11,200 -600 Descending FlightAware ADS-B (KBTF)
06:19PM 41.1055 -112.0117 175° South 179 206 10,600 -1,260 Descending FlightAware ADS-B (KBTF)
06:20PM 41.0780 -112.0082 175° South 195 224 9,900 -1,320 Descending FlightAware ADS-B (KBTF)
06:20PM 41.0607 -112.0059 170° South 183 211 9,500 -960 Descending FlightAware ADS-B (KBTF)
06:20PM 41.0434 -111.9982 158° South 192 221 9,300 -480 Descending FlightAware ADS-B (KBTF)
06:21PM 41.0273 -111.9888 154° Southeast 184 212 9,200 -180 Descending FlightAware ADS-B (KBTF)
06:21PM 41.0122 -111.9810 163° South 186 214 9,200 -180 Level FlightAware ADS-B (KBTF)
06:21PM 40.9960 -111.9747 163° South 189 217 9,100 -360 Descending FlightAware ADS-B (KBTF)
06:22PM 40.9815 -111.9694 166° South 188 216 9,000 -480 Descending FlightAware ADS-B (KBTF)
06:22PM 40.9642 -111.9644 169° South 181 208 8,800 -900 Descending FlightAware ADS-B (KBTF)
06:22PM 40.9473 -111.9622 176° South 180 207 8,400 -1,200 Descending FlightAware ADS-B (KBTF)
06:23PM 40.9307 -111.9609 178° South 165 190 8,000 -1,260 Descending FlightAware ADS-B (KBTF)
06:23PM 40.9129 -111.9605 179° South 165 190 7,500 -1,320 Descending FlightAware ADS-B (KBTF)
06:23PM 40.8988 -111.9607 181° South 150 173 7,100 -1,320 Descending FlightAware ADS-B (KBTF)
06:24PM 40.8862 -111.9612 183° South 145 167 6,700 -1,200 Descending FlightAware ADS-B (KBTF)
06:24PM 40.8710 -111.9618 181° South 128 147 6,300 -1,020 Descending FlightAware ADS-B (KBTF)
06:24PM 40.8591 -111.9619 179° South 134 154 6,000 -1,080 Descending FlightAware ADS-B (KBTF)
06:25PM 40.8454 -111.9617 180° South 133 153 5,600 -1,080 Descending FlightAware ADS-B (KBTF)
06:25PM 40.8333 -111.9619 181° South 131 151 5,300 -900 Descending FlightAware ADS-B (KBTF)
06:25PM 40.8195 -111.9621 180° South 133 153 5,000 -840 Descending FlightAware ADS-B (KBTF)
06:26PM 40.8056 -111.9620 180° South 132 152 4,700 -780 Descending FlightAware ADS-B (KBTF)
06:26PM 40.7948 -111.9620 180° South 129 148 4,500 -720 Descending FlightAware ADS-B (KBTF)